Погода в Уфе

Погода в Уфе : погода сейчас, прогноз погоды и архив. Всё, что Вы хотите узнать о погоде в Уфе!

Хотите узнать прогноз погоды в Уфе? Тогда Вам сюда: Погода в Уфе

Поиск расширенной информации на нашем сайте:

Другие новости

Новости СМИ2

Главная страница сайта

Новости сайта

03.07.2017

Напоминаем, что на нашем специализированном сайте Метеоцентр.Азия вы можете получить высокодетализированные автоматические прогнозы погоды по пунктам России, СНГ и мира в авиационном формате (включающие направление и скорость ветра, видимость, явления погоды, количество и форму облачности, нижнюю и верхнюю границу облачности).


Погода в Уфе - сегодня

Время (UTC), дата Ветер
(°,м/с) 
Видим.   Явления Облачность Т
(°С)
Тd
(°С)
f(%) Тe
(°С)
Pmin
(гПа)
dP
(гПа)
Po
(мм)
O2
(г/м3)
Тmin Tmax R s Состояние
почвы
18 15.02.18 210 (ЮЗ) 10 км    6/0 средняя, верхняя 
[Ac trans|Ci fib]
-14.1 -16.1 85 -14  1040.7  0.5  770  329           
21 15.02.18 240 (ЮЗ) 10 км    9/0 средняя 
[Ac trans]
-12.3 -14.2 86 -12  1041.1  0.5  770  326           
00 16.02.18 тихо ()   4000 м  слаб. ливневой снег  10/10 600 м кучево-дожд. 
[Cb cap]
-8.7 -10.4 87 -9  1041.5  0.5  771  322           
03 16.02.18 230 (ЮЗ) 10 км  {ливн. осадки}  1/0 верхняя 
[Ci fib]
-14.4 -16.4 85 -14  1042.4  0.6  771  329  -14.4    0.0  16  равномерный
сухой снег
100% 
06 16.02.18 тихо ()   10 км  {ливн. осадки}  ясно 
-7.5 -11 76 -8  1043  772  321  -15.3         
09 16.02.18 360 (С) 10 км    ясно 
-5.5 -12.6 57 -7  1043.1  0.2  772  319           
12 16.02.18 010 (С) 10 км    ясно 
-4.9 -12.6 55 -6  1043  0.1  772  318           
15 16.02.18 240 (ЮЗ) 10 км    ясно 
-13.7 -16.5 79 -14  1043.7  0.3  772  329    -4.6       
18 16.02.18 240 (ЮЗ) 10 км    ясно 
-17.4 -19.6 83 -18  1043.9  772  334           
21 16.02.18 240 (ЮЗ) 10 км    ясно 
-18.5 -20.8 82 -19  1043.9  0.1  772  335           
00 17.02.18 тихо ()   10 км    ясно 
-18.8 -21.3 81 -19  1044  0.1  772  336           
03 17.02.18 тихо ()   10 км    ясно 
-21 -23.8 78 -21  1044.1  772  339  -21.1      16  равномерный
сухой снег
100% 
06 17.02.18 150 (ЮВ) 4000 м  дымка  6/0 верхняя 
[Cs]
-14.8 -17 83 -15  1043.8  772  330           
09 17.02.18 180 (Ю) 10 км    8/0 верхняя 
[Cs]
-6.8 -13.2 60 -6  1042.2  -1.2  771  320           
12 17.02.18 180 (Ю) 10 км    3/0 верхняя 
[Ci fib]
-4.9 -12.5 55 -6  1040.9  -1.1  770  317           
18 17.02.18 230 (ЮЗ) 10 км    3/0 верхняя 
[Ci fib]
-16.8 -19 83 -17  1040.6  -0.4  770  332           
21 17.02.18 220 (ЮЗ) 10 км    3/0 верхняя 
[Ci fib]
-18.3 -20.8 81 -19  1040.2  -0.4  769  334           
00 18.02.18 170 (Ю) 4000 м  дымка  3/0 верхняя 
[Ci fib]
-16.3 -18.4 84 -19  1040  -0.2  769  331           
03 18.02.18 180 (Ю) 4000 м  дымка  3/0 верхняя 
[Ci fib]
-17.1 -19.5 82 -20  1039.6  -0.4  769  332  -20.5      16  равномерный
сухой снег
100% 
06 18.02.18 160 (Ю) 10 км  дымка  ясно 
-13.4 -15.7 83 -13  1039.3  0.1  769  327           
09 18.02.18 180 (Ю) 10 км    ясно 
-5.8 -12.4 60 -7  1038.2  768  318           
12 18.02.18 190 (Ю) 10 км    ясно 
-3.5 -11.8 53 -3  1036.6  -1.4  767  314           
18 18.02.18 240 (ЮЗ) 10 км    3/0 верхняя 
[Ci fib]
-15.7 -17.8 84 -16  1035.3  -1  766  329           
21 18.02.18 170 (Ю) 10 км    9/0 верхняя 
[Ci fib]
-10.2 -13.3 78 -10  1034.2  -0.8  765  322           
00 19.02.18 150 (ЮВ) 10 км    10/0 средняя 
[Ac As]
-9.1 -13.4 71 -9  1033.1  -1  764  320           
Время (UTC), дата Ветер
(°,м/с) 
Видим.   Явления Облачность Т
(°С)
Тd
(°С)
f(%) Тe
(°С)
Pmin
(гПа)
dP
(гПа)
Po
(мм)
O2
(г/м3)
Тmin Tmax R s Состояние
почвы

Для получения пояснительной информации подведите курсор к названию столбца.

ПОГОДА в Уфе - архив

Всё, что Вы хотите узнать о погоде в Уфе - удобно и подробно!

Выберите нужную дату (начиная с 1 января 2015* года) и нажмите кнопку "Найти".
Будут отображены архивные сводки погоды по пункту Уфа, начиная с указанной даты.


Отображать данные в формате CSV (для использования в таблицах Excel)


Внимание! Наш архив погоды предназначен исключительно для личного некоммерческого использования в познавательных целях. Если Вам необходимы официальные справки о состоянии погоды (для производственных, юридических, коммерческих и т.п. целей), обращайтесь в органы Росгидромета.

*Примечание: данная дата относится к архиву по метеостанциям СССР (Россия, СНГ, Балтия).
Архив по метеостанциям Зарубежной Европы и Азии (кроме Китая) хранится 10 дней, по другим регионам земного шара (Китай, Африка, Америка, Австралия, Океания) - 1 день.

Уфа - район местоположения метеостанции


Название, широта, долгота, высота метеостанции:
Уфа (город) 54.7°ш. 55.8°д. 104 м над ур. моря [Российская Федерация]

Дополнительная информация

В oтличие oт бoльшинства пoгoдных сайтoв мы публикуем пoдрoбную метеoинфoрмацию в детальнoм прoфессиoнальнoм фoрмате.

Характеристики температуры и влажнoсти вoздуха измеряются на высoте 2 м в тени вдали oт зданий и деревьев.
Скoрoсть ветра измеряется на высoте 10 м (на урoвне рoста челoвека скoрoсть ветра ниже в 1.5-2 раза). Если метеoстанция нахoдится в гoрoде или в лесу, тo скoрoсть ветра занижена на 2-4 м/с пo сравнению с oткрытым местoм. Скoрoсть ветра над акватoриями крупных рек и oзёр, а также на вершинах хoлмoв на 2-5 м/с выше, чем в oбычных услoвиях.
Атмoсфернoе давление в разных тoчках местнoсти мoжет значительнo oтличаться oт давления на метеoстанции, в зависимoсти oт услoвий рельефа (при пoдъёме на 10 м давление пoнижается примернo на 1 мм рт.ст.).